When you browse on this site, cookies collect data to enhance your experience and personalize the content and advertising you see.
Visit our Privacy Policy to learn more. By continuing to use the site, you agree to this use of cookies and data.
  • In Österreich
  • Länderverzeichnis
  • Für 7 Tage
  • Wassertemperatur
  • Satellitenkarten
  • Wetterkarte
  • News
  • Widgets
  • user-avatar
    Anmelden

    Stündliche Wetter Troy

    Heute, 18 April, Donnerstag

    Zeit Temperatur Niederschläge Wind Luftdruck Luftfeuchtigkeit
    00:00 +19°C° 0 mm 5 m/S 733 mmHg 76%
    01:00 +19°C° 0 mm 5 m/S 733 mmHg 77%
    02:00 +17°C° 0 mm 5 m/S 733 mmHg 77%
    03:00 +17°C° 0 mm 5 m/S 732 mmHg 77%
    04:00 +17°C° 0 mm 6 m/S 733 mmHg 77%
    05:00 +17°C° 0 mm 6 m/S 733 mmHg 76%
    06:00 +17°C° 0 mm 6 m/S 733 mmHg 76%
    07:00 +18°C° 0 mm 8 m/S 733 mmHg 73%
    08:00 +19°C° 0 mm 9 m/S 732 mmHg 70%
    09:00 +21°C° 0 mm 10 m/S 732 mmHg 67%
    10:00 +22°C° 0 mm 10 m/S 731 mmHg 64%
    11:00 +23°C° 0 mm 10 m/S 731 mmHg 61%
    12:00 +24°C° 0 mm 10 m/S 731 mmHg 58%
    13:00 +24°C° 0.1 mm 9 m/S 730 mmHg 59%
    14:00 +24°C° 0.1 mm 9 m/S 730 mmHg 60%
    15:00 +24°C° 0.1 mm 9 m/S 730 mmHg 61%
    16:00 +23°C° 0.7 mm 7 m/S 729 mmHg 65%
    17:00 +22°C° 0.7 mm 6 m/S 729 mmHg 70%
    18:00 +21°C° 0.7 mm 4 m/S 729 mmHg 75%
    19:00 +20°C° 0.3 mm 4 m/S 729 mmHg 77%
    20:00 +20°C° 0.3 mm 4 m/S 729 mmHg 79%
    21:00 +19°C° 0.3 mm 4 m/S 729 mmHg 81%
    22:00 +18°C° 1.6 mm 3 m/S 728 mmHg 85%
    23:00 +17°C° 1.6 mm 2 m/S 728 mmHg 90%

    Morgen, 19 April, Freitag

    Zeit Temperatur Niederschläge Wind Luftdruck Luftfeuchtigkeit
    00:00 +18°C° 1.6 mm 1 m/S 727 mmHg 94%
    01:00 +17°C° 5.1 mm 3 m/S 726 mmHg 92%
    02:00 +16°C° 5.1 mm 5 m/S 725 mmHg 90%
    03:00 +17°C° 5.1 mm 7 m/S 723 mmHg 89%
    04:00 +15°C° 2 mm 6 m/S 723 mmHg 90%
    05:00 +14°C° 2 mm 6 m/S 723 mmHg 91%
    06:00 +13°C° 2 mm 5 m/S 723 mmHg 92%
    07:00 +12°C° 0.9 mm 5 m/S 723 mmHg 92%
    08:00 +12°C° 0.9 mm 5 m/S 723 mmHg 93%
    09:00 +10°C° 0.9 mm 5 m/S 723 mmHg 93%
    10:00 +10°C° 0.2 mm 6 m/S 723 mmHg 92%
    11:00 +9°C° 0.2 mm 6 m/S 724 mmHg 90%
    12:00 +9°C° 0.2 mm 7 m/S 724 mmHg 89%
    13:00 +8°C° 0.1 mm 7 m/S 724 mmHg 88%
    14:00 +8°C° 0.1 mm 7 m/S 724 mmHg 88%
    15:00 +6°C° 0.1 mm 7 m/S 725 mmHg 87%
    16:00 +5°C° 0.1 mm 7 m/S 725 mmHg 87%
    17:00 +5°C° 0.1 mm 7 m/S 725 mmHg 87%
    18:00 +4°C° 0.1 mm 7 m/S 725 mmHg 88%
    19:00 +4°C° 0.5 mm 7 m/S 726 mmHg 88%
    20:00 +4°C° 0.5 mm 6 m/S 726 mmHg 89%
    21:00 +4°C° 0.5 mm 6 m/S 726 mmHg 89%
    22:00 +4°C° 0.1 mm 6 m/S 726 mmHg 90%
    23:00 +4°C° 0.1 mm 6 m/S 725 mmHg 90%

    übermorgen, 20 April, Samstag

    Zeit Temperatur Niederschläge Wind Luftdruck Luftfeuchtigkeit
    00:00 +5°C° 0.1 mm 5 m/S 725 mmHg 90%
    01:00 +5°C° 0.8 mm 5 m/S 725 mmHg 91%
    02:00 +5°C° 0.8 mm 4 m/S 725 mmHg 92%
    03:00 +4°C° 0.8 mm 4 m/S 725 mmHg 92%
    04:00 +4°C° 0.5 mm 4 m/S 725 mmHg 92%
    05:00 +4°C° 0.5 mm 4 m/S 725 mmHg 92%
    06:00 +4°C° 0.5 mm 4 m/S 725 mmHg 92%
    07:00 +5°C° 0.4 mm 4 m/S 725 mmHg 91%
    08:00 +5°C° 0.4 mm 4 m/S 725 mmHg 90%
    09:00 +5°C° 0.4 mm 3 m/S 726 mmHg 89%
    10:00 +5°C° 0.8 mm 4 m/S 726 mmHg 89%
    11:00 +5°C° 0.8 mm 4 m/S 726 mmHg 89%
    12:00 +5°C° 0.8 mm 4 m/S 727 mmHg 89%
    13:00 +5°C° 0.8 mm 4 m/S 727 mmHg 89%
    14:00 +5°C° 0.8 mm 4 m/S 727 mmHg 88%
    15:00 +5°C° 0.8 mm 4 m/S 727 mmHg 88%
    16:00 +5°C° 0.2 mm 4 m/S 728 mmHg 88%
    17:00 +5°C° 0.2 mm 3 m/S 729 mmHg 89%
    18:00 +5°C° 0.2 mm 3 m/S 729 mmHg 90%
    19:00 +5°C° 0.3 mm 3 m/S 730 mmHg 91%
    20:00 +5°C° 0.3 mm 3 m/S 730 mmHg 92%
    21:00 +5°C° 0.3 mm 3 m/S 731 mmHg 93%
    22:00 +5°C° 0.5 mm 3 m/S 731 mmHg 93%
    23:00 +5°C° 0.5 mm 3 m/S 731 mmHg 93%

    21 April, Sonntag

    Zeit Temperatur Niederschläge Wind Luftdruck Luftfeuchtigkeit
    00:00 +4°C° 0.5 mm 3 m/S 732 mmHg 93%
    01:00 +5°C° 0.4 mm 3 m/S 732 mmHg 93%
    02:00 +5°C° 0.4 mm 4 m/S 733 mmHg 93%
    03:00 +5°C° 0.4 mm 4 m/S 733 mmHg 93%
    04:00 +5°C° 0 mm 4 m/S 734 mmHg 91%
    05:00 +5°C° 0 mm 3 m/S 734 mmHg 88%
    06:00 +5°C° 0 mm 3 m/S 735 mmHg 86%
    07:00 +8°C° 0 mm 3 m/S 736 mmHg 76%
    08:00 +10°C° 0 mm 3 m/S 736 mmHg 67%
    09:00 +12°C° 0 mm 3 m/S 737 mmHg 57%
    10:00 +14°C° 0 mm 3 m/S 737 mmHg 54%
    11:00 +17°C° 0 mm 3 m/S 738 mmHg 51%
    12:00 +19°C° 0 mm 3 m/S 738 mmHg 48%
    13:00 +20°C° 0 mm 3 m/S 738 mmHg 48%
    14:00 +20°C° 0 mm 3 m/S 738 mmHg 48%
    15:00 +21°C° 0 mm 3 m/S 738 mmHg 49%
    16:00 +20°C° 0 mm 3 m/S 738 mmHg 57%
    17:00 +19°C° 0 mm 3 m/S 738 mmHg 65%
    18:00 +18°C° 0 mm 2 m/S 739 mmHg 73%
    19:00 +17°C° 0 mm 3 m/S 739 mmHg 78%
    20:00 +16°C° 0 mm 3 m/S 739 mmHg 83%
    21:00 +14°C° 0 mm 3 m/S 740 mmHg 88%
    22:00 +14°C° 0 mm 3 m/S 740 mmHg 89%
    23:00 +14°C° 0 mm 3 m/S 740 mmHg 90%

    22 April, Montag

    Zeit Temperatur Niederschläge Wind Luftdruck Luftfeuchtigkeit
    00:00 +14°C° 0 mm 3 m/S 740 mmHg 91%
    01:00 +13°C° 0 mm 3 m/S 740 mmHg 92%
    02:00 +13°C° 0 mm 3 m/S 740 mmHg 92%
    03:00 +13°C° 0 mm 3 m/S 740 mmHg 93%
    04:00 +13°C° 0 mm 3 m/S 740 mmHg 93%
    05:00 +14°C° 0 mm 4 m/S 741 mmHg 93%
    06:00 +14°C° 0 mm 4 m/S 741 mmHg 94%
    07:00 +15°C° 0 mm 4 m/S 741 mmHg 91%
    08:00 +17°C° 0 mm 4 m/S 742 mmHg 88%
    09:00 +18°C° 0 mm 4 m/S 742 mmHg 85%
    10:00 +20°C° 0 mm 4 m/S 742 mmHg 77%
    11:00 +22°C° 0 mm 5 m/S 742 mmHg 70%
    12:00 +25°C° 0 mm 5 m/S 741 mmHg 63%
    13:00 +26°C° 0.3 mm 6 m/S 741 mmHg 61%
    14:00 +26°C° 0.3 mm 6 m/S 741 mmHg 60%
    15:00 +26°C° 0.3 mm 7 m/S 740 mmHg 58%
    16:00 +24°C° 0.1 mm 6 m/S 740 mmHg 63%
    17:00 +22°C° 0.1 mm 5 m/S 741 mmHg 68%
    18:00 +21°C° 0.1 mm 4 m/S 741 mmHg 73%
    19:00 +20°C° 0.5 mm 4 m/S 741 mmHg 77%
    20:00 +19°C° 0.5 mm 4 m/S 741 mmHg 82%
    21:00 +18°C° 0.5 mm 3 m/S 742 mmHg 86%
    22:00 +18°C° 0.1 mm 3 m/S 742 mmHg 87%
    23:00 +18°C° 0.1 mm 3 m/S 742 mmHg 88%

    23 April, Dienstag

    Zeit Temperatur Niederschläge Wind Luftdruck Luftfeuchtigkeit
    00:00 +18°C° 0.1 mm 2 m/S 742 mmHg 89%
    01:00 +17°C° 0 mm 2 m/S 742 mmHg 90%
    02:00 +17°C° 0 mm 2 m/S 742 mmHg 91%
    03:00 +17°C° 0 mm 2 m/S 742 mmHg 93%
    04:00 +17°C° 0 mm 2 m/S 743 mmHg 92%
    05:00 +17°C° 0 mm 2 m/S 743 mmHg 92%
    06:00 +17°C° 0 mm 2 m/S 743 mmHg 92%
    07:00 +18°C° 0 mm 2 m/S 744 mmHg 86%
    08:00 +20°C° 0 mm 2 m/S 744 mmHg 80%
    09:00 +21°C° 0 mm 2 m/S 744 mmHg 74%
    10:00 +21°C° 0 mm 2 m/S 744 mmHg 74%
    11:00 +21°C° 0 mm 3 m/S 744 mmHg 73%
    12:00 +20°C° 0 mm 3 m/S 744 mmHg 73%
    13:00 +20°C° 0 mm 4 m/S 744 mmHg 74%
    14:00 +20°C° 0 mm 4 m/S 744 mmHg 75%
    15:00 +19°C° 0 mm 4 m/S 743 mmHg 77%
    16:00 +18°C° 0 mm 4 m/S 743 mmHg 79%
    17:00 +17°C° 0 mm 4 m/S 743 mmHg 82%
    18:00 +15°C° 0 mm 4 m/S 743 mmHg 85%
    19:00 +14°C° 0.5 mm 4 m/S 744 mmHg 87%
    20:00 +13°C° 0.5 mm 4 m/S 744 mmHg 90%
    21:00 +12°C° 0.5 mm 4 m/S 744 mmHg 92%
    22:00 +12°C° 0.5 mm 4 m/S 744 mmHg 92%
    23:00 +12°C° 0.5 mm 3 m/S 744 mmHg 93%
    Mehr zeigen